EDT,Max TemperatureF,Mean TemperatureF,Min TemperatureF,Max Dew PointF,MeanDew PointF,Min DewpointF,Max Humidity, Mean Humidity, Min Humidity, Max Sea Level PressureIn, Mean Sea Level PressureIn, Min Sea Level PressureIn, Max VisibilityMiles, Mean VisibilityMiles, Min VisibilityMiles, Max Wind SpeedMPH, Mean Wind SpeedMPH, Max Gust SpeedMPH,PrecipitationIn, CloudCover, Events, WindDirDegrees
2013-8-1,82,76,71,75,72,70,100,90,78,30.04,29.97,29.91,10,7,1,21,5,28,0.36,6,Rain-Thunderstorm,200
2013-8-2,87,80,73,76,74,72,97,85,69,30.06,30.01,29.93,10,9,5,13,7,20,0.03,3,Thunderstorm,211
2013-8-3,88,81,75,77,75,72,96,82,63,30.07,30.00,29.95,10,9,2,13,5,21,0.15,3,Rain-Thunderstorm,208
2013-8-4,88,78,69,75,71,63,97,78,52,30.04,29.95,29.89,10,8,2,18,5,26,0.14,2,Rain,329
2013-8-5,84,74,64,65,62,59,97,69,43,30.11,30.07,30.03,10,9,6,10,3,,0.00,1,,126
2013-8-6,84,74,66,69,65,61,97,71,47,30.10,30.07,30.03,10,10,9,9,3,,0.00,2,,164
2013-8-7,87,77,68,73,70,66,96,78,59,30.13,30.10,30.07,10,10,5,10,3,,0.00,1,,119
2013-8-8,88,80,73,76,74,70,100,85,55,30.10,30.06,30.04,10,8,1,14,5,20,0.72,5,Rain-Tornado,187
2013-8-9,90,82,75,76,74,73,97,79,59,30.11,30.07,30.03,10,5,0,14,6,22,0.00,0,Fog,206
2013-8-10,91,83,75,77,75,72,100,88,57,30.15,30.10,30.04,10,3,0,14,6,,0.00,1,Fog,235
2013-8-11,91,83,75,79,74,73,94,81,59,30.13,30.08,30.04,10,8,1,9,4,17,0.05,1,Rain-Thunderstorm,227
2013-8-12,93,83,73,78,74,71,96,83,52,30.06,30.02,29.96,10,8,1,10,6,,0.08,1,Rain-Thunderstorm,241
2013-8-13,90,82,75,79,75,72,97,84,61,29.97,29.89,29.81,10,8,0,18,6,26,0.42,3,Rain-Thunderstorm,220
2013-8-14,79,74,68,74,70,61,100,87,69,30.07,29.91,29.81,10,4,0,15,8,24,0.06,6,Fog-Rain-Thunderstorm,314
2013-8-15,73,67,62,65,62,59,100,81,64,30.14,30.10,30.07,10,6,0,13,7,20,0.54,8,Rain,32
2013-8-16,73,70,66,68,66,64,100,88,78,30.16,30.11,30.06,10,10,7,10,7,,0.01,8,Rain,12
2013-8-17,79,73,68,75,71,64,97,91,83,30.15,30.11,30.06,10,8,0,13,6,,0.14,7,Fog-Rain,48
2013-8-18,87,79,71,74,72,71,100,88,63,30.21,30.16,30.13,10,6,0,8,3,,0.00,4,Fog,241
2013-8-19,81,76,71,75,73,71,100,93,79,30.18,30.14,30.09,10,7,1,24,6,29,1.27,7,Rain,44
2013-8-20,84,78,71,75,74,71,100,93,74,30.20,30.16,30.10,10,7,0,10,4,,0.96,6,Fog-Rain-Thunderstorm,65
2013-8-21,87,80,72,75,73,68,97,81,62,30.25,30.19,30.14,10,9,1,12,3,23,0.02,3,Rain,134
2013-8-22,86,77,70,75,72,69,97,86,72,30.17,30.11,30.04,10,10,10,10,2,,0.00,4,,239
2013-8-23,90,80,71,76,71,68,100,83,55,30.09,30.01,29.94,10,9,1,14,4,23,0.45,3,Rain-Thunderstorm,258
2013-8-24,84,75,68,72,67,62,100,83,51,30.27,30.12,30.03,10,8,0,15,8,23,0.65,5,Fog-Rain-Thunderstorm,14
2013-8-25,81,72,64,63,62,61,90,72,54,30.36,30.30,30.27,10,10,10,15,9,22,0.00,1,,24
2013-8-26,84,72,61,65,60,52,90,71,34,30.31,30.24,30.15,10,10,10,9,4,,0.00,0,,5
2013-8-27,84,74,64,66,64,60,93,72,51,30.15,30.06,30.00,10,10,10,13,5,,0.00,2,,234
2013-8-28,87,78,70,76,72,63,90,77,61,30.03,29.97,29.93,10,9,5,8,6,,0.00,2,,230
2013-8-29,89,82,73,73,71,69,88,75,57,30.01,29.91,29.87,10,9,6,17,9,17,0.00,4,,321
2013-8-30,87,75,66,72,69,66,100,84,53,30.06,30.02,29.98,10,8,1,12,6,,0.00,3,,39
2013-8-31,88,77,68,75,71,67,100,90,59,30.01,29.97,29.92,10,6,0,10,1,,0.00,3,Fog,152